| time (UTC) | temp C | wind direction | speed KPH | gust KPH | rain 1hr cm | rain 24hr cm | rain mn cm | humidity % | barometer mb |
| 20260503200520 | 11 | 135 | 3.2 | 4.8 | 0.00 | 0.00 | 0.00 | 61 | 1017.9 |
| 20260503195516 | 11 | 122 | 3.2 | 4.8 | 0.00 | 0.00 | 0.00 | 61 | 1017.9 |
| 20260503194533 | 12 | 75 | 0.0 | 1.6 | 0.00 | 0.00 | 0.00 | 58 | 1017.9 |
| 20260503193528 | 12 | 125 | 0.0 | 1.6 | 0.00 | 0.00 | 0.00 | 58 | 1018.1 |
| 20260503192524 | 12 | 130 | 0.0 | 3.2 | 0.00 | 0.00 | 0.00 | 57 | 1018.1 |
| 20260503191520 | 13 | 31 | 0.0 | 1.6 | 0.00 | 0.00 | 0.00 | 56 | 1018.1 |
| 20260503190517 | 13 | 146 | 0.0 | 3.2 | 0.00 | 0.00 | 0.00 | 55 | 1018.1 |
| 20260503185533 | 13 | 165 | 0.0 | 3.2 | 0.00 | 0.00 | 0.00 | 54 | 1018.0 |
| 20260503184531 | 13 | 205 | 1.6 | 3.2 | 0.00 | 0.00 | 0.00 | 54 | 1018.1 |
| 20260503183525 | 13 | 219 | 3.2 | 6.4 | 0.00 | 0.00 | 0.00 | 53 | 1018.1 |
| 20260503182521 | 13 | 204 | 3.2 | 8.0 | 0.00 | 0.00 | 0.00 | 53 | 1018.1 |
| 20260503181518 | 14 | 201 | 4.8 | 8.0 | 0.00 | 0.00 | 0.00 | 53 | 1018.2 |
| 20260503180555 | 14 | 197 | 4.8 | 6.4 | 0.00 | 0.00 | 0.00 | 52 | 1018.2 |
| 20260503175530 | 14 | 200 | 3.2 | 6.4 | 0.00 | 0.00 | 0.00 | 52 | 1018.1 |
| 20260503174527 | 15 | 184 | 4.8 | 8.0 | 0.00 | 0.00 | 0.00 | 51 | 1018.0 |
| 20260503173543 | 15 | 185 | 4.8 | 9.7 | 0.00 | 0.00 | 0.00 | 49 | 1018.1 |
| 20260503172519 | 16 | 187 | 3.2 | 6.4 | 0.00 | 0.00 | 0.00 | 49 | 1018.2 |
| 20260503171536 | 16 | 186 | 6.4 | 9.7 | 0.00 | 0.00 | 0.00 | 47 | 1018.2 |
| 20260503170531 | 16 | 183 | 6.4 | 11.3 | 0.00 | 0.00 | 0.00 | 46 | 1018.3 |
| 20260503150545 | 19 | 99 | 3.2 | 6.4 | 0.00 | 0.00 | 0.00 | 41 | 1019.2 |
| 20260503130517 | 18 | 72 | 4.8 | 11.3 | 0.00 | 0.00 | 0.00 | 38 | 1020.5 |
| 20260503110531 | 17 | 140 | 3.2 | 9.7 | 0.00 | 0.00 | 0.00 | 38 | 1021.9 |
| 20260503081547 | 15 | 197 | 4.8 | 11.3 | 0.00 | 0.00 | 0.00 | 42 | 1023.7 |
| 20260503080523 | 14 | 103 | 4.8 | 8.0 | 0.00 | 0.00 | 0.00 | 42 | 1023.8 |
| 20260503072528 | 13 | 186 | 4.8 | 8.0 | 0.00 | 0.00 | 0.00 | 48 | 1024.0 |
| 20260503071529 | 12 | 145 | 3.2 | 9.7 | 0.00 | 0.00 | 0.00 | 52 | 1024.1 |
| 20260503070519 | 12 | 168 | 3.2 | 6.4 | 0.00 | 0.00 | 0.00 | 52 | 1024.1 |
| 20260503054530 | 8 | 85 | 1.6 | 4.8 | 0.00 | 0.00 | 0.00 | 66 | 1024.0 |
| 20260503053526 | 7 | 76 | 3.2 | 3.2 | 0.00 | 0.00 | 0.00 | 71 | 1024.0 |
| 20260503052522 | 6 | 93 | 3.2 | 4.8 | 0.00 | 0.00 | 0.00 | 75 | 1024.0 |
| 20260503051517 | 6 | 72 | 4.8 | 6.4 | 0.00 | 0.00 | 0.00 | 75 | 1024.0 |
| 20260503050534 | 6 | 71 | 4.8 | 6.4 | 0.00 | 0.00 | 0.00 | 76 | 1024.0 |
| 20260503045530 | 5 | 67 | 4.8 | 8.0 | 0.00 | 0.00 | 0.00 | 79 | 1023.9 |
| 20260503044527 | 5 | 55 | 4.8 | 6.4 | 0.00 | 0.00 | 0.00 | 79 | 1023.8 |
| 20260503043523 | 4 | 46 | 4.8 | 6.4 | 0.00 | 0.03 | 0.00 | 78 | 1023.7 |
| 20260503042520 | 6 | 81 | 3.2 | 4.8 | 0.00 | 0.03 | 0.00 | 75 | 1023.7 |
| 20260503041534 | 5 | 123 | 3.2 | 4.8 | 0.00 | 0.03 | 0.00 | 76 | 1023.6 |
| 20260503040550 | 4 | 116 | 3.2 | 4.8 | 0.00 | 0.03 | 0.00 | 80 | 1023.6 |
| 20260503035547 | 3 | 97 | 3.2 | 4.8 | 0.00 | 0.03 | 0.00 | 84 | 1023.7 |
| 20260503034523 | 2 | 88 | 3.2 | 4.8 | 0.00 | 0.03 | 0.00 | 87 | 1023.4 |
| 20260503033600 | 1 | 100 | 3.2 | 3.2 | 0.00 | 0.03 | 0.00 | 89 | 1023.4 |
| 20260503032535 | 1 | 107 | 3.2 | 4.8 | 0.00 | 0.03 | 0.00 | 89 | 1023.5 |
| 20260503031531 | 1 | 138 | 3.2 | 4.8 | 0.00 | 0.03 | 0.00 | 88 | 1023.5 |
| 20260503030527 | 1 | 131 | 3.2 | 4.8 | 0.00 | 0.03 | 0.00 | 90 | 1023.4 |
| 20260503025524 | 1 | 132 | 3.2 | 4.8 | 0.00 | 0.03 | 0.00 | 90 | 1023.5 |
| 20260503024520 | 1 | 123 | 1.6 | 3.2 | 0.00 | 0.03 | 0.00 | 89 | 1023.4 |
| 20260503023516 | 1 | 0.0 | 1.6 | 0.00 | 0.03 | 0.00 | 89 | 1023.4 | |
| 20260503022531 | 1 | 138 | 0.0 | 3.2 | 0.00 | 0.03 | 0.00 | 88 | 1023.5 |
| 20260503021547 | 1 | 73 | 0.0 | 3.2 | 0.00 | 0.03 | 0.00 | 87 | 1023.5 |
| 20260503020524 | 1 | 133 | 3.2 | 4.8 | 0.00 | 0.03 | 0.00 | 87 | 1023.3 |
| 20260503015520 | 1 | 87 | 1.6 | 3.2 | 0.00 | 0.03 | 0.00 | 86 | 1023.3 |
| 20260503014517 | 1 | 126 | 3.2 | 3.2 | 0.00 | 0.03 | 0.00 | 86 | 1023.2 |
| 20260503013532 | 2 | 123 | 3.2 | 4.8 | 0.00 | 0.03 | 0.00 | 85 | 1023.3 |
| 20260503012529 | 2 | 122 | 1.6 | 3.2 | 0.00 | 0.03 | 0.00 | 85 | 1023.2 |
| 20260503011525 | 2 | 107 | 1.6 | 3.2 | 0.00 | 0.03 | 0.00 | 86 | 1023.3 |
| 20260503010522 | 2 | 93 | 1.6 | 3.2 | 0.00 | 0.03 | 0.00 | 85 | 1023.3 |
| 20260503005517 | 2 | 135 | 1.6 | 4.8 | 0.00 | 0.03 | 0.00 | 85 | 1023.2 |
| 20260503004553 | 2 | 119 | 3.2 | 3.2 | 0.00 | 0.03 | 0.00 | 84 | 1023.3 |
| 20260503003528 | 2 | 104 | 3.2 | 3.2 | 0.00 | 0.03 | 0.00 | 86 | 1023.3 |
| 20260503002544 | 2 | 131 | 3.2 | 4.8 | 0.00 | 0.03 | 0.00 | 86 | 1023.3 |
| 20260503001541 | 2 | 109 | 0.0 | 3.2 | 0.00 | 0.03 | 0.00 | 86 | 1023.4 |
| 20260503000522 | 2 | 125 | 1.6 | 3.2 | 0.00 | 0.03 | 0.00 | 85 | 1023.5 |
| 20260502235534 | 2 | 86 | 1.6 | 3.2 | 0.00 | 0.03 | 0.00 | 83 | 1023.5 |
| 20260502234529 | 3 | 106 | 0.0 | 3.2 | 0.00 | 0.03 | 0.00 | 81 | 1023.4 |
| 20260502233525 | 3 | 134 | 0.0 | 3.2 | 0.00 | 0.03 | 0.00 | 82 | 1023.6 |
| 20260502232521 | 3 | 141 | 0.0 | 1.6 | 0.00 | 0.03 | 0.00 | 83 | 1023.7 |
| 20260502231518 | 3 | 100 | 0.0 | 1.6 | 0.00 | 0.03 | 0.00 | 82 | 1023.8 |
| 20260502230534 | 3 | 103 | 0.0 | 3.2 | 0.00 | 0.03 | 0.00 | 82 | 1023.8 |
| 20260502225551 | 3 | 143 | 3.2 | 3.2 | 0.00 | 0.03 | 0.00 | 82 | 1024.0 |
| 20260502224526 | 3 | 130 | 0.0 | 3.2 | 0.00 | 0.03 | 0.00 | 83 | 1024.0 |
| 20260502223602 | 3 | 167 | 0.0 | 1.6 | 0.00 | 0.03 | 0.00 | 82 | 1024.0 |
| 20260502222519 | 3 | 103 | 1.6 | 3.2 | 0.00 | 0.03 | 0.00 | 80 | 1024.0 |
| 20260502221535 | 4 | 115 | 1.6 | 3.2 | 0.00 | 0.03 | 0.00 | 78 | 1024.0 |
| 20260502220532 | 4 | 111 | 1.6 | 3.2 | 0.00 | 0.03 | 0.00 | 78 | 1024.0 |
| 20260502215528 | 4 | 104 | 1.6 | 3.2 | 0.00 | 0.03 | 0.00 | 77 | 1024.2 |
| 20260502214524 | 5 | 123 | 1.6 | 3.2 | 0.00 | 0.03 | 0.00 | 77 | 1024.2 |
| 20260502213519 | 5 | 131 | 1.6 | 3.2 | 0.00 | 0.03 | 0.00 | 77 | 1024.2 |
| 20260502212516 | 5 | 0.0 | 1.6 | 0.00 | 0.03 | 0.00 | 75 | 1024.3 | |
| 20260502211533 | 5 | 120 | 0.0 | 1.6 | 0.00 | 0.03 | 0.00 | 76 | 1024.3 |
| 20260502210529 | 5 | 123 | 1.6 | 3.2 | 0.00 | 0.03 | 0.00 | 77 | 1024.2 |
| 20260502205526 | 5 | 129 | 0.0 | 3.2 | 0.00 | 0.03 | 0.03 | 76 | 1024.3 |
| 20260502204521 | 5 | 132 | 1.6 | 4.8 | 0.00 | 0.03 | 0.03 | 75 | 1024.3 |
| 20260502203537 | 5 | 123 | 1.6 | 3.2 | 0.00 | 0.03 | 0.03 | 75 | 1024.2 |
| 20260502202533 | 6 | 104 | 3.2 | 3.2 | 0.00 | 0.03 | 0.03 | 73 | 1024.2 |
| 20260502201530 | 6 | 95 | 0.0 | 1.6 | 0.00 | 0.03 | 0.03 | 72 | 1024.1 |